Time,TemperatureF,DewpointF,PressureIn,WindDirection,WindDirectionDegrees,WindSpeedMPH,WindSpeedGustMPH,Humidity,HourlyPrecipIn,Conditions,Clouds,dailyrainin,SoftwareType,DateUTC
2013-07-02 00:00:00,70.0,41.1,29.97,NNW,336,0.0,0.0,35,0.00,,-RA,0.00,VWS V14.01,2013-07-02 04:00:00,
2013-07-02 00:01:00,70.0,41.1,29.97,NNW,336,0.0,0.0,35,0.00,,-RA,0.00,VWS V14.01,2013-07-02 04:01:00,
2013-07-02 00:02:00,70.0,41.1,29.97,NNW,339,0.0,0.0,35,0.00,,-RA,0.00,VWS V14.01,2013-07-02 04:02:00,
2013-07-02 00:03:00,70.0,41.1,29.97,NNW,336,0.0,0.0,35,0.00,,-RA,0.00,VWS V14.01,2013-07-02 04:03:00,
2013-07-02 00:08:00,70.0,41.1,29.97,NNW,332,0.0,0.0,35,0.00,,-RA,0.00,VWS V14.01,2013-07-02 04:08:00,
2013-07-02 00:13:00,70.0,41.1,29.97,NNW,335,0.0,0.0,35,0.00,,-RA,0.00,VWS V14.01,2013-07-02 04:13:00,
2013-07-02 00:18:00,70.0,41.1,29.97,NNW,335,0.0,0.0,35,0.00,,-RA,0.00,VWS V14.01,2013-07-02 04:18:00,
2013-07-02 00:23:00,70.0,41.1,29.97,NNW,335,0.0,0.0,35,0.00,,-RA,0.00,VWS V14.01,2013-07-02 04:23:00,
2013-07-02 00:29:00,70.0,41.1,29.97,NNW,335,0.0,0.0,35,0.00,,-RA,0.83,VWS V14.01,2013-07-02 04:29:00,
2013-07-02 00:34:00,70.0,41.1,29.97,NNW,333,0.0,0.0,35,0.00,,-RA,0.00,VWS V14.01,2013-07-02 04:34:00,
2013-07-02 00:39:00,70.0,41.1,29.97,NNW,335,0.0,0.0,35,0.00,,-RA,0.00,VWS V14.01,2013-07-02 04:39:00,
2013-07-02 00:44:00,70.0,41.1,29.97,NNW,337,0.0,0.0,35,0.00,,-RA,0.00,VWS V14.01,2013-07-02 04:44:00,
2013-07-02 00:49:00,70.0,41.1,29.97,West,268,0.0,8.5,35,0.00,,-RA,0.00,VWS V14.01,2013-07-02 04:49:00,
2013-07-02 00:54:00,70.0,41.1,30.00,West,267,0.0,7.0,35,0.00,,-RA,0.00,VWS V14.01,2013-07-02 04:54:00,
2013-07-02 00:59:00,70.0,41.1,30.00,West,275,0.0,0.0,35,0.00,,-RA,0.00,VWS V14.01,2013-07-02 04:59:00,
2013-07-02 01:04:00,70.0,41.1,30.00,West,270,0.0,0.0,35,0.00,,-RA,0.83,VWS V14.01,2013-07-02 05:04:00,
2013-07-02 01:09:00,70.0,41.1,30.00,West,272,0.0,0.0,35,0.00,,-RA,0.83,VWS V14.01,2013-07-02 05:09:00,
2013-07-02 01:15:00,70.0,41.1,30.00,West,275,0.0,0.0,35,0.00,,-RA,0.83,VWS V14.01,2013-07-02 05:15:00,
2013-07-02 01:20:00,70.0,41.1,30.00,West,275,0.0,0.0,35,0.00,,-RA,0.00,VWS V14.01,2013-07-02 05:20:00,
2013-07-02 01:25:00,70.0,41.1,30.00,West,274,0.0,0.0,35,0.00,,-RA,0.00,VWS V14.01,2013-07-02 05:25:00,
2013-07-02 01:30:00,70.0,41.1,30.00,West,274,0.0,0.0,35,0.00,,-RA,0.00,VWS V14.01,2013-07-02 05:30:00,
2013-07-02 01:35:00,70.0,41.1,30.00,West,274,0.0,0.0,35,0.00,,BKN028,0.00,VWS V14.01,2013-07-02 05:35:00,
2013-07-02 01:40:00,70.0,41.1,30.00,West,274,0.0,0.0,35,0.00,,BKN028,0.00,VWS V14.01,2013-07-02 05:40:00,
2013-07-02 01:45:00,70.0,41.1,30.00,West,273,0.0,0.0,35,0.00,,BKN028,0.00,VWS V14.01,2013-07-02 05:45:00,
2013-07-02 01:50:00,70.0,41.1,30.00,West,271,0.0,0.0,35,0.00,,BKN028,0.00,VWS V14.01,2013-07-02 05:50:00,
2013-07-02 01:55:00,70.0,41.1,30.00,West,276,0.0,0.0,35,0.00,,BKN028,0.00,VWS V14.01,2013-07-02 05:55:00,
2013-07-02 02:00:00,70.0,41.1,30.00,West,269,0.0,0.0,35,0.00,,BKN028,0.83,VWS V14.01,2013-07-02 06:00:00,
2013-07-02 02:06:00,70.0,41.1,30.00,West,269,0.0,0.0,35,0.00,,BKN028,0.83,VWS V14.01,2013-07-02 06:06:00,
2013-07-02 02:11:00,70.0,41.1,30.00,West,269,0.0,0.0,35,0.00,,BKN028,0.83,VWS V14.01,2013-07-02 06:11:00,
2013-07-02 02:16:00,70.0,41.1,30.00,West,266,0.0,0.0,35,0.00,,BKN028,0.00,VWS V14.01,2013-07-02 06:16:00,
2013-07-02 02:21:00,70.0,41.1,30.00,West,267,0.0,0.0,35,0.00,,BKN028,0.00,VWS V14.01,2013-07-02 06:21:00,
2013-07-02 02:26:00,70.0,41.1,30.00,West,265,0.0,0.0,35,0.00,,BKN028,0.00,VWS V14.01,2013-07-02 06:26:00,
2013-07-02 02:31:00,70.0,41.1,30.00,West,264,0.0,0.0,35,0.00,,BKN028,0.00,VWS V14.01,2013-07-02 06:31:00,
2013-07-02 02:36:00,70.0,41.1,30.00,West,259,0.0,0.0,35,0.00,,BKN028,0.00,VWS V14.01,2013-07-02 06:36:00,
2013-07-02 02:41:00,70.0,41.1,30.00,West,259,0.0,0.0,35,0.00,,BKN028,0.00,VWS V14.01,2013-07-02 06:41:00,
2013-07-02 02:47:00,70.0,41.1,30.00,West,259,0.0,0.0,35,0.00,,BKN028,0.83,VWS V14.01,2013-07-02 06:47:00,
2013-07-02 02:52:00,70.0,41.1,30.00,West,261,0.0,0.0,35,0.00,,BKN028,0.00,VWS V14.01,2013-07-02 06:52:00,
2013-07-02 02:57:00,70.0,41.1,30.00,West,261,0.0,0.0,35,0.00,,BKN028,0.00,VWS V14.01,2013-07-02 06:57:00,
2013-07-02 03:02:00,70.0,41.1,30.00,West,264,0.0,0.0,35,0.00,,BKN024,0.00,VWS V14.01,2013-07-02 07:02:00,
2013-07-02 03:07:00,70.0,41.1,30.00,West,262,0.0,0.0,35,0.00,,BKN024,0.00,VWS V14.01,2013-07-02 07:07:00,
2013-07-02 03:12:00,70.0,41.1,30.00,West,262,0.0,0.0,35,0.00,,BKN024,0.00,VWS V14.01,2013-07-02 07:12:00,
2013-07-02 03:17:00,70.0,41.1,30.00,West,262,0.0,0.0,35,0.00,,BKN024,0.00,VWS V14.01,2013-07-02 07:17:00,
2013-07-02 03:22:00,70.0,41.1,30.00,West,262,0.0,0.0,35,0.00,,BKN024,0.00,VWS V14.01,2013-07-02 07:22:00,
2013-07-02 03:28:00,70.0,41.1,30.00,West,262,0.0,0.0,35,0.00,,BKN024,0.00,VWS V14.01,2013-07-02 07:28:00,
2013-07-02 03:33:00,70.0,41.1,30.00,West,280,0.0,0.0,35,0.00,,BKN024,0.83,VWS V14.01,2013-07-02 07:33:00,
2013-07-02 03:38:00,70.0,41.1,30.00,West,277,0.0,0.0,35,0.00,,BKN024,0.00,VWS V14.01,2013-07-02 07:38:00,
2013-07-02 03:43:00,70.0,41.1,30.00,West,277,0.0,0.0,35,0.00,,BKN024,0.00,VWS V14.01,2013-07-02 07:43:00,
2013-07-02 03:48:00,70.0,41.1,30.00,West,263,0.0,0.0,35,0.00,,BKN024,0.00,VWS V14.01,2013-07-02 07:48:00,
2013-07-02 03:53:00,70.0,41.1,30.03,West,260,0.0,0.0,35,0.08,,BKN024,0.08,VWS V14.01,2013-07-02 07:53:00,
2013-07-02 03:58:00,70.0,41.1,30.03,West,260,0.0,0.0,35,0.08,,BKN024,0.08,VWS V14.01,2013-07-02 07:58:00,
2013-07-02 04:03:00,70.0,41.1,30.03,West,260,0.0,0.0,35,0.08,,-RA,0.08,VWS V14.01,2013-07-02 08:03:00,
2013-07-02 04:08:00,70.0,41.1,30.03,West,260,0.0,0.0,35,0.08,,-RA,0.08,VWS V14.01,2013-07-02 08:08:00,
2013-07-02 04:14:00,70.0,41.1,30.03,West,260,0.0,0.0,35,0.08,,-RA,0.08,VWS V14.01,2013-07-02 08:14:00,
2013-07-02 04:19:00,70.0,41.1,30.03,West,260,0.0,0.0,35,0.08,,-RA,0.08,VWS V14.01,2013-07-02 08:19:00,
2013-07-02 04:24:00,70.0,41.1,30.03,West,261,0.0,0.0,35,0.08,,-RA,0.08,VWS V14.01,2013-07-02 08:24:00,
2013-07-02 04:29:00,70.0,41.1,30.03,West,261,0.0,0.0,35,0.08,,-RA,0.08,VWS V14.01,2013-07-02 08:29:00,
2013-07-02 04:34:00,70.0,41.1,30.03,West,267,0.0,0.0,35,0.08,,-RA,0.08,VWS V14.01,2013-07-02 08:34:00,
2013-07-02 04:39:00,70.0,41.1,30.03,West,266,0.0,0.0,35,0.08,,-RA,0.08,VWS V14.01,2013-07-02 08:39:00,
2013-07-02 04:44:00,70.0,41.1,30.03,West,266,0.0,0.0,35,0.08,,-RA,0.08,VWS V14.01,2013-07-02 08:44:00,
2013-07-02 04:49:00,70.0,41.1,30.03,West,266,0.0,0.0,35,0.08,,-RA,0.08,VWS V14.01,2013-07-02 08:49:00,
2013-07-02 04:55:00,70.0,41.1,30.03,West,266,0.0,0.0,35,0.08,,-RA,0.08,VWS V14.01,2013-07-02 08:55:00,
2013-07-02 05:00:00,70.0,41.1,30.03,West,266,0.0,0.0,35,0.00,,-RA,0.08,VWS V14.01,2013-07-02 09:00:00,
2013-07-02 05:05:00,70.0,41.1,30.03,West,266,0.0,0.0,35,0.00,,BKN022,0.08,VWS V14.01,2013-07-02 09:05:00,
2013-07-02 05:10:00,70.0,41.1,30.03,West,266,0.0,0.0,35,0.00,,BKN022,0.08,VWS V14.01,2013-07-02 09:10:00,
2013-07-02 05:15:00,70.0,41.1,30.03,West,266,0.0,0.0,35,0.00,,BKN022,0.83,VWS V14.01,2013-07-02 09:15:00,
2013-07-02 05:20:00,70.0,41.1,30.03,West,265,0.0,0.0,35,0.00,,BKN022,0.83,VWS V14.01,2013-07-02 09:20:00,
2013-07-02 05:25:00,70.0,41.1,30.03,West,265,0.0,0.0,35,0.00,,BKN022,0.08,VWS V14.01,2013-07-02 09:25:00,
2013-07-02 05:30:00,70.0,41.1,30.03,West,265,0.0,0.0,35,0.00,,BKN022,0.83,VWS V14.01,2013-07-02 09:30:00,
2013-07-02 05:35:00,70.0,41.1,30.03,West,265,0.0,0.0,35,0.00,,BKN022,0.08,VWS V14.01,2013-07-02 09:35:00,
2013-07-02 05:40:00,70.0,41.1,30.03,West,265,0.0,0.0,35,0.00,,BKN022,0.08,VWS V14.01,2013-07-02 09:40:00,
2013-07-02 05:45:00,70.0,41.1,30.03,West,265,0.0,0.0,35,0.00,,BKN022,0.08,VWS V14.01,2013-07-02 09:45:00,
2013-07-02 05:51:00,70.0,41.1,30.03,NNW,336,0.0,0.0,35,0.00,,BKN022,0.08,VWS V14.01,2013-07-02 09:51:00,
2013-07-02 05:56:00,70.0,41.1,30.06,NNE,12,0.0,0.0,35,0.00,,BKN022,0.08,VWS V14.01,2013-07-02 09:56:00,
2013-07-02 06:01:00,70.0,41.1,30.06,NNW,339,0.0,0.0,35,0.00,,BKN022,0.08,VWS V14.01,2013-07-02 10:01:00,
2013-07-02 06:06:00,70.0,41.1,30.06,NNW,340,0.0,0.0,35,0.00,,BKN017,0.08,VWS V14.01,2013-07-02 10:06:00,
2013-07-02 06:11:00,70.0,41.1,30.06,NNW,340,0.0,0.0,35,0.00,,BKN017,0.08,VWS V14.01,2013-07-02 10:11:00,
2013-07-02 06:16:00,70.0,41.1,30.06,ENE,59,0.0,0.0,35,0.00,,BKN017,0.08,VWS V14.01,2013-07-02 10:16:00,
2013-07-02 06:21:00,70.0,41.1,30.06,ENE,59,0.0,0.0,35,0.00,,BKN017,0.08,VWS V14.01,2013-07-02 10:21:00,
2013-07-02 06:26:00,70.0,41.1,30.06,NE,44,0.0,0.0,35,0.00,,BKN017,0.08,VWS V14.01,2013-07-02 10:26:00,
2013-07-02 06:32:00,70.0,41.1,30.06,NE,44,0.0,0.0,35,0.00,,BKN017,0.08,VWS V14.01,2013-07-02 10:32:00,
2013-07-02 06:37:00,70.0,41.1,30.06,NE,44,0.0,0.0,35,0.00,,BKN017,0.08,VWS V14.01,2013-07-02 10:37:00,
2013-07-02 06:42:00,70.0,41.1,30.06,NE,44,0.0,0.0,35,0.00,,BKN017,0.08,VWS V14.01,2013-07-02 10:42:00,
2013-07-02 06:47:00,70.0,41.1,30.06,NE,44,0.0,0.0,35,0.00,,BKN017,0.08,VWS V14.01,2013-07-02 10:47:00,
2013-07-02 06:52:00,70.0,41.1,30.06,NE,44,0.0,0.0,35,0.00,,BKN017,0.08,VWS V14.01,2013-07-02 10:52:00,
2013-07-02 06:57:00,70.0,41.1,30.06,NE,44,0.0,0.0,35,0.00,,BKN017,0.08,VWS V14.01,2013-07-02 10:57:00,
2013-07-02 07:02:00,70.0,41.1,30.06,NE,44,0.0,0.0,35,0.00,,BKN026,0.83,VWS V14.01,2013-07-02 11:02:00,
2013-07-02 07:07:00,70.0,41.1,30.06,NE,44,0.0,0.0,35,0.00,,BKN026,0.08,VWS V14.01,2013-07-02 11:07:00,
2013-07-02 07:13:00,70.0,41.1,30.06,NE,44,0.0,0.0,35,0.00,,BKN026,0.08,VWS V14.01,2013-07-02 11:13:00,
2013-07-02 07:18:00,70.0,41.1,30.06,NE,44,0.0,0.0,35,0.00,,BKN026,0.08,VWS V14.01,2013-07-02 11:18:00,
2013-07-02 07:23:00,70.0,41.1,30.06,NE,44,0.0,0.0,35,0.00,,BKN026,0.08,VWS V14.01,2013-07-02 11:23:00,
2013-07-02 07:28:00,70.0,41.1,30.06,NE,44,0.0,0.0,35,0.00,,BKN026,0.08,VWS V14.01,2013-07-02 11:28:00,
2013-07-02 07:33:00,70.0,41.1,30.06,NE,44,0.0,0.0,35,0.00,,BKN200,0.83,VWS V14.01,2013-07-02 11:33:00,
2013-07-02 07:38:00,70.0,41.1,30.06,NNE,16,0.0,0.0,35,0.00,,BKN200,0.08,VWS V14.01,2013-07-02 11:38:00,
2013-07-02 07:43:00,70.0,41.1,30.06,NNE,16,0.0,0.0,35,0.00,,BKN200,0.83,VWS V14.01,2013-07-02 11:43:00,
2013-07-02 07:48:00,70.0,41.1,30.06,NNE,16,0.0,0.0,35,0.00,,BKN200,0.08,VWS V14.01,2013-07-02 11:48:00,
2013-07-02 07:54:00,70.0,41.1,30.09,NNE,16,0.0,0.0,35,0.00,,BKN200,0.83,VWS V14.01,2013-07-02 11:54:00,
2013-07-02 07:59:00,70.0,41.1,30.09,NNE,16,0.0,0.0,35,0.00,,BKN200,0.08,VWS V14.01,2013-07-02 11:59:00,
2013-07-02 08:04:00,70.0,41.1,30.09,NNE,16,0.0,0.0,35,0.00,,BKN200,0.08,VWS V14.01,2013-07-02 12:04:00,
2013-07-02 08:09:00,70.0,41.1,30.09,NNE,16,0.0,0.0,35,0.00,,BKN200,0.08,VWS V14.01,2013-07-02 12:09:00,
2013-07-02 08:14:00,70.0,41.1,30.09,NNE,16,0.0,0.0,35,0.00,,BKN200,0.08,VWS V14.01,2013-07-02 12:14:00,
2013-07-02 08:19:00,70.0,41.1,30.09,NNW,346,0.0,0.0,35,0.00,,BKN200,0.08,VWS V14.01,2013-07-02 12:19:00,
2013-07-02 08:24:00,70.0,41.1,30.09,NNW,348,0.0,0.0,35,0.00,,BKN200,0.08,VWS V14.01,2013-07-02 12:24:00,
2013-07-02 08:29:00,70.0,41.1,30.09,NNW,348,0.0,0.0,35,0.00,,BKN200,0.08,VWS V14.01,2013-07-02 12:29:00,
2013-07-02 08:34:00,70.0,41.1,30.09,North,11,0.0,0.0,35,0.00,,BKN200,0.08,VWS V14.01,2013-07-02 12:34:00,
2013-07-02 08:39:00,70.0,41.1,30.09,North,11,0.0,0.0,35,0.00,,BKN200,0.08,VWS V14.01,2013-07-02 12:39:00,
2013-07-02 08:44:00,70.0,41.1,30.09,NNE,15,0.0,0.0,35,0.00,,BKN200,0.83,VWS V14.01,2013-07-02 12:44:00,
2013-07-02 08:49:00,70.0,41.1,30.09,NNE,32,0.0,0.0,35,0.00,,BKN200,0.08,VWS V14.01,2013-07-02 12:49:00,
2013-07-02 08:55:00,70.0,41.1,30.09,NNE,32,0.0,0.0,35,0.00,,BKN200,0.08,VWS V14.01,2013-07-02 12:55:00,
2013-07-02 09:00:00,70.0,41.1,30.09,NE,36,0.0,0.0,35,0.00,,BKN200,0.08,VWS V14.01,2013-07-02 13:00:00,
2013-07-02 09:05:00,70.0,41.1,30.09,North,353,0.0,0.0,35,0.00,,BKN200,0.08,VWS V14.01,2013-07-02 13:05:00,
2013-07-02 09:10:00,70.0,41.1,30.09,North,353,0.0,0.0,35,0.00,,BKN200,0.08,VWS V14.01,2013-07-02 13:10:00,
2013-07-02 09:15:00,70.0,41.1,30.09,North,353,0.0,0.0,35,0.00,,BKN200,0.08,VWS V14.01,2013-07-02 13:15:00,
2013-07-02 09:20:00,70.0,41.1,30.09,North,353,0.0,0.0,35,0.00,,BKN200,0.08,VWS V14.01,2013-07-02 13:20:00,
2013-07-02 09:25:00,70.0,41.1,30.09,North,353,0.0,0.0,35,0.00,,BKN200,0.83,VWS V14.01,2013-07-02 13:25:00,
2013-07-02 09:30:00,70.0,41.1,30.09,North,353,0.0,0.0,35,0.00,,BKN200,0.08,VWS V14.01,2013-07-02 13:30:00,
2013-07-02 09:35:00,70.0,41.1,30.09,North,353,0.0,0.0,35,0.00,,BKN200,0.08,VWS V14.01,2013-07-02 13:35:00,
2013-07-02 09:40:00,70.0,41.1,30.09,North,353,0.0,0.0,35,0.00,,BKN200,0.08,VWS V14.01,2013-07-02 13:40:00,
2013-07-02 09:45:00,70.0,41.1,30.09,North,353,0.0,0.0,35,0.00,,BKN200,0.08,VWS V14.01,2013-07-02 13:45:00,
2013-07-02 09:50:00,70.0,41.1,30.09,North,353,0.0,0.0,35,0.00,,BKN200,0.08,VWS V14.01,2013-07-02 13:50:00,
2013-07-02 09:55:00,70.0,41.1,30.09,NNE,15,0.0,0.0,35,0.00,,BKN200,0.83,VWS V14.01,2013-07-02 13:55:00,
2013-07-02 10:00:00,70.0,41.1,30.09,NE,34,0.0,0.0,35,0.00,,BKN200,0.08,VWS V14.01,2013-07-02 14:00:00,
2013-07-02 10:05:00,70.0,41.1,30.09,NNW,344,0.0,0.0,35,0.00,,OVC100,0.08,VWS V14.01,2013-07-02 14:05:00,
2013-07-02 10:10:00,70.0,41.1,30.12,NNW,348,0.0,0.0,35,0.00,,OVC100,0.08,VWS V14.01,2013-07-02 14:10:00,
2013-07-02 10:15:00,70.0,41.1,30.12,NNW,348,0.0,0.0,35,0.00,,OVC100,0.08,VWS V14.01,2013-07-02 14:15:00,
2013-07-02 10:21:00,70.0,41.1,30.12,NNW,348,0.0,0.0,35,0.00,,OVC100,0.08,VWS V14.01,2013-07-02 14:21:00,
2013-07-02 10:26:00,70.0,41.1,30.12,NNW,344,0.0,0.0,35,0.04,,OVC100,0.12,VWS V14.01,2013-07-02 14:26:00,
2013-07-02 10:31:00,70.0,41.1,30.12,NNW,343,0.0,0.0,35,0.04,,OVC100,0.83,VWS V14.01,2013-07-02 14:31:00,
2013-07-02 10:36:00,70.0,41.1,30.12,NNW,344,0.0,0.0,35,0.04,,OVC100,0.12,VWS V14.01,2013-07-02 14:36:00,
2013-07-02 10:41:00,70.0,41.1,30.12,NNW,337,0.0,0.0,35,0.04,,OVC100,0.12,VWS V14.01,2013-07-02 14:41:00,
2013-07-02 10:46:00,70.0,41.1,30.12,NNW,340,0.0,0.0,35,0.08,,OVC100,0.16,VWS V14.01,2013-07-02 14:46:00,
2013-07-02 10:51:00,70.0,41.1,30.12,NNW,340,0.0,0.0,35,0.08,,OVC100,0.16,VWS V14.01,2013-07-02 14:51:00,
2013-07-02 10:56:00,70.0,41.1,30.12,North,353,0.0,8.5,35,0.08,,OVC100,0.16,VWS V14.01,2013-07-02 14:56:00,
2013-07-02 11:01:00,70.0,41.1,30.12,NNE,14,0.0,12.7,35,0.12,,OVC100,0.20,VWS V14.01,2013-07-02 15:01:00,
2013-07-02 11:06:00,70.0,41.1,30.12,NNE,14,0.0,0.0,35,0.12,,OVC100,0.20,VWS V14.01,2013-07-02 15:06:00,
2013-07-02 11:11:00,70.0,41.1,30.12,NNE,14,0.0,0.0,35,0.12,,OVC100,0.83,VWS V14.01,2013-07-02 15:11:00,
2013-07-02 11:16:00,70.0,41.1,30.12,NNE,14,0.0,0.0,35,0.12,,OVC100,0.20,VWS V14.01,2013-07-02 15:16:00,
2013-07-02 11:21:00,70.0,41.1,30.12,NNE,14,0.0,0.0,35,0.12,,,0.20,VWS V14.01,2013-07-02 15:21:00,
2013-07-02 11:27:00,70.0,41.1,30.12,NNE,14,0.0,0.0,35,0.08,,,0.83,VWS V14.01,2013-07-02 15:27:00,
2013-07-02 11:32:00,70.0,41.1,30.12,NNE,12,0.0,0.0,35,0.08,,,0.20,VWS V14.01,2013-07-02 15:32:00,
2013-07-02 11:37:00,70.0,41.1,30.12,NNE,13,0.0,0.0,35,0.12,,,0.24,VWS V14.01,2013-07-02 15:37:00,
2013-07-02 11:42:00,70.0,41.1,30.12,NNE,24,0.0,0.0,35,0.12,,,0.24,VWS V14.01,2013-07-02 15:42:00,
2013-07-02 11:47:00,70.0,41.1,30.12,NNE,24,0.0,0.0,35,0.08,,,0.83,VWS V14.01,2013-07-02 15:47:00,
2013-07-02 11:52:00,70.0,41.1,30.12,North,0,0.0,0.0,35,0.08,,,0.24,VWS V14.01,2013-07-02 15:52:00,
2013-07-02 11:57:00,70.0,41.1,30.12,North,0,0.0,0.0,35,0.08,,,0.24,VWS V14.01,2013-07-02 15:57:00,
2013-07-02 12:02:00,70.0,41.1,30.12,North,0,0.0,0.0,35,0.04,,-RA,0.24,VWS V14.01,2013-07-02 16:02:00,
2013-07-02 12:07:00,70.0,41.1,30.12,North,0,0.0,0.0,35,0.04,,-RA,0.24,VWS V14.01,2013-07-02 16:07:00,
2013-07-02 12:12:00,70.0,41.1,30.12,NNE,13,0.0,0.0,35,0.04,,-RA,0.24,VWS V14.01,2013-07-02 16:12:00,
2013-07-02 12:17:00,70.0,41.1,30.12,NNE,13,0.0,0.0,35,0.04,,-RA,0.24,VWS V14.01,2013-07-02 16:17:00,
2013-07-02 12:23:00,70.0,41.1,30.15,North,3,0.0,0.0,35,0.04,,-RA,0.24,VWS V14.01,2013-07-02 16:23:00,
2013-07-02 12:28:00,70.0,41.1,30.15,North,3,0.0,0.0,35,0.04,,-RA,0.24,VWS V14.01,2013-07-02 16:28:00,
2013-07-02 12:33:00,70.0,41.1,30.15,North,4,0.0,0.0,35,0.08,,-RA,0.28,VWS V14.01,2013-07-02 16:33:00,
2013-07-02 12:38:00,70.0,41.1,30.15,North,4,0.0,0.0,35,0.04,,-RA,0.28,VWS V14.01,2013-07-02 16:38:00,
2013-07-02 12:43:00,70.0,41.1,30.15,North,4,0.0,0.0,35,0.04,,-RA,0.28,VWS V14.01,2013-07-02 16:43:00,
2013-07-02 12:48:00,70.0,41.1,30.15,NNE,18,0.0,0.0,35,0.04,,-RA,0.28,VWS V14.01,2013-07-02 16:48:00,
2013-07-02 12:53:00,70.0,41.1,30.15,NNE,14,0.0,0.0,35,0.04,,-RA,0.28,VWS V14.01,2013-07-02 16:53:00,
2013-07-02 12:58:00,70.0,41.1,30.15,NNE,26,0.0,0.0,35,0.04,,-RA,0.28,VWS V14.01,2013-07-02 16:58:00,
2013-07-02 13:03:00,70.0,41.1,30.15,NNE,26,0.0,0.0,35,0.04,,-RA,0.28,VWS V14.01,2013-07-02 17:03:00,
2013-07-02 13:08:00,70.0,41.1,30.12,NNE,26,0.0,0.0,35,0.04,,-RA,0.28,VWS V14.01,2013-07-02 17:08:00,
2013-07-02 13:13:00,70.0,41.1,30.12,NNE,26,0.0,0.0,35,0.04,,-RA,0.83,VWS V14.01,2013-07-02 17:13:00,
2013-07-02 13:18:00,70.0,41.1,30.12,NNE,26,0.0,0.0,35,0.04,,-RA,0.28,VWS V14.01,2013-07-02 17:18:00,
2013-07-02 13:24:00,70.0,41.1,30.12,NNE,26,0.0,0.0,35,0.04,,-RA,0.83,VWS V14.01,2013-07-02 17:24:00,
2013-07-02 13:29:00,70.0,41.1,30.12,NNW,345,0.0,0.0,35,0.04,,-RA,0.28,VWS V14.01,2013-07-02 17:29:00,
2013-07-02 13:34:00,70.0,41.1,30.12,NNW,345,0.0,0.0,35,0.04,,-RA,0.83,VWS V14.01,2013-07-02 17:34:00,
2013-07-02 13:39:00,70.0,41.1,30.12,NNW,345,0.0,0.0,35,0.00,,-RA,0.28,VWS V14.01,2013-07-02 17:39:00,
2013-07-02 13:44:00,70.0,41.1,30.12,NNW,344,0.0,0.0,35,0.00,,-RA,0.83,VWS V14.01,2013-07-02 17:44:00,
2013-07-02 13:49:00,70.0,41.1,30.12,NNW,346,0.0,0.0,35,0.00,,-RA,0.83,VWS V14.01,2013-07-02 17:49:00,
2013-07-02 13:54:00,70.0,41.1,30.12,NNW,346,0.0,0.0,35,0.00,,-RA,0.83,VWS V14.01,2013-07-02 17:54:00,
2013-07-02 13:59:00,70.0,41.1,30.12,NNW,345,0.0,0.0,35,0.00,,-RA,0.28,VWS V14.01,2013-07-02 17:59:00,
2013-07-02 14:04:00,70.0,41.1,30.12,NNW,345,0.0,0.0,35,0.00,,-RA,0.28,VWS V14.01,2013-07-02 18:04:00,
2013-07-02 14:09:00,70.0,41.1,30.12,NNE,19,0.0,0.0,35,0.00,,-RA,0.28,VWS V14.01,2013-07-02 18:09:00,
2013-07-02 14:14:00,70.0,41.1,30.12,NNE,19,0.0,0.0,35,0.00,,-RA,0.28,VWS V14.01,2013-07-02 18:14:00,
2013-07-02 14:19:00,70.0,41.1,30.12,North,11,0.0,7.0,35,0.00,,-RA,0.28,VWS V14.01,2013-07-02 18:19:00,
2013-07-02 14:24:00,70.0,41.1,30.15,North,7,0.0,0.0,35,0.00,,-RA,0.28,VWS V14.01,2013-07-02 18:24:00,
2013-07-02 14:30:00,70.0,41.1,30.15,North,7,0.0,0.0,35,0.00,,-RA,0.83,VWS V14.01,2013-07-02 18:30:00,
2013-07-02 14:35:00,70.0,41.1,30.15,North,7,0.0,0.0,35,0.00,,-RA,0.28,VWS V14.01,2013-07-02 18:35:00,
2013-07-02 14:40:00,70.0,41.1,30.15,North,353,0.0,0.0,35,0.00,,-RA,0.83,VWS V14.01,2013-07-02 18:40:00,
2013-07-02 14:45:00,70.0,41.1,30.15,North,353,0.0,0.0,35,0.04,,-RA,0.31,VWS V14.01,2013-07-02 18:45:00,
2013-07-02 14:50:00,70.0,41.1,30.15,North,353,0.0,0.0,35,0.04,,-RA,0.31,VWS V14.01,2013-07-02 18:50:00,
2013-07-02 14:55:00,70.0,41.1,30.15,North,353,0.0,0.0,35,0.04,,-RA,0.31,VWS V14.01,2013-07-02 18:55:00,
2013-07-02 15:00:00,70.0,41.1,30.15,North,357,0.0,0.0,35,0.04,,-RA,0.83,VWS V14.01,2013-07-02 19:00:00,
2013-07-02 15:05:00,70.0,41.1,30.15,North,350,0.0,0.0,35,0.04,,-RA,0.31,VWS V14.01,2013-07-02 19:05:00,
2013-07-02 15:10:00,70.0,41.1,30.15,North,3,0.0,0.0,35,0.04,,-RA,0.31,VWS V14.01,2013-07-02 19:10:00,
2013-07-02 15:15:00,70.0,41.1,30.15,North,3,0.0,0.0,35,0.04,,-RA,0.31,VWS V14.01,2013-07-02 19:15:00,
2013-07-02 15:20:00,70.0,41.1,30.15,North,3,0.0,0.0,35,0.04,,-RA,0.31,VWS V14.01,2013-07-02 19:20:00,
2013-07-02 15:25:00,70.0,41.1,30.15,North,3,0.0,0.0,35,0.04,,-RA,0.83,VWS V14.01,2013-07-02 19:25:00,
2013-07-02 15:30:00,70.0,41.1,30.15,North,0,0.0,0.0,35,0.04,,-RA,0.31,VWS V14.01,2013-07-02 19:30:00,
2013-07-02 15:35:00,70.0,41.1,30.15,North,0,0.0,0.0,35,0.04,,-RA,0.31,VWS V14.01,2013-07-02 19:35:00,
2013-07-02 15:41:00,70.0,41.1,30.15,North,0,0.0,0.0,35,0.04,,-RA,0.31,VWS V14.01,2013-07-02 19:41:00,
2013-07-02 15:46:00,70.0,41.1,30.15,North,0,0.0,0.0,35,0.00,,-RA,0.31,VWS V14.01,2013-07-02 19:46:00,
2013-07-02 15:51:00,70.0,41.1,30.15,North,0,0.0,0.0,35,0.00,,-RA,0.31,VWS V14.01,2013-07-02 19:51:00,
2013-07-02 15:56:00,70.0,41.1,30.15,North,0,0.0,0.0,35,0.00,,-RA,0.31,VWS V14.01,2013-07-02 19:56:00,
2013-07-02 16:01:00,70.0,41.1,30.15,North,0,0.0,0.0,35,0.00,,-RA,0.31,VWS V14.01,2013-07-02 20:01:00,
2013-07-02 16:06:00,70.0,41.1,30.15,North,0,0.0,0.0,35,0.00,,-RA,0.31,VWS V14.01,2013-07-02 20:06:00,
2013-07-02 16:11:00,70.0,41.1,30.15,North,0,0.0,0.0,35,0.00,,-RA,0.31,VWS V14.01,2013-07-02 20:11:00,
2013-07-02 16:16:00,70.0,41.1,30.15,North,0,0.0,0.0,35,0.00,,-RA,0.83,VWS V14.01,2013-07-02 20:16:00,
2013-07-02 16:21:00,70.0,41.1,30.15,North,0,0.0,0.0,35,0.00,,-RA,0.31,VWS V14.01,2013-07-02 20:21:00,
2013-07-02 16:26:00,70.0,41.1,30.15,North,0,0.0,0.0,35,0.00,,-RA,0.31,VWS V14.01,2013-07-02 20:26:00,
2013-07-02 16:31:00,70.0,41.1,30.15,North,0,0.0,0.0,35,0.00,,-RA,0.31,VWS V14.01,2013-07-02 20:31:00,
2013-07-02 16:37:00,70.0,41.1,30.15,North,0,0.0,0.0,35,0.00,,-RA,0.31,VWS V14.01,2013-07-02 20:37:00,
2013-07-02 16:42:00,70.0,41.1,30.15,North,0,0.0,0.0,35,0.00,,-RA,0.31,VWS V14.01,2013-07-02 20:42:00,
2013-07-02 16:47:00,70.0,41.1,30.15,North,0,0.0,0.0,35,0.00,,-RA,0.31,VWS V14.01,2013-07-02 20:47:00,
2013-07-02 16:52:00,70.0,41.1,30.15,NNW,338,0.0,0.0,35,0.00,,-RA,0.31,VWS V14.01,2013-07-02 20:52:00,
2013-07-02 16:57:00,70.0,41.1,30.15,NNW,338,0.0,0.0,35,0.00,,-RA,0.83,VWS V14.01,2013-07-02 20:57:00,
2013-07-02 17:02:00,70.0,41.1,30.15,NNW,338,0.0,0.0,35,0.00,,-RA,0.31,VWS V14.01,2013-07-02 21:02:00,
2013-07-02 17:07:00,70.0,41.1,30.12,NNW,338,0.0,0.0,35,0.00,,-RA,0.31,VWS V14.01,2013-07-02 21:07:00,
2013-07-02 17:13:00,70.0,41.1,30.12,NNW,338,0.0,0.0,35,0.00,,-RA,0.31,VWS V14.01,2013-07-02 21:13:00,
2013-07-02 17:18:00,70.0,41.1,30.12,NNW,338,0.0,0.0,35,0.00,,-RA,0.83,VWS V14.01,2013-07-02 21:18:00,
2013-07-02 17:23:00,70.0,41.1,30.12,NNW,338,0.0,0.0,35,0.00,,-RA,0.31,VWS V14.01,2013-07-02 21:23:00,
2013-07-02 17:28:00,70.0,41.1,30.12,NNW,340,0.0,0.0,35,0.00,,-RA,0.83,VWS V14.01,2013-07-02 21:28:00,
2013-07-02 17:33:00,70.0,41.1,30.12,North,3,0.0,0.0,35,0.00,,-RA,0.31,VWS V14.01,2013-07-02 21:33:00,
2013-07-02 17:38:00,70.0,41.1,30.12,North,3,0.0,0.0,35,0.00,,-RA,0.31,VWS V14.01,2013-07-02 21:38:00,
2013-07-02 17:43:00,70.0,41.1,30.12,North,3,0.0,0.0,35,0.00,,-RA,0.31,VWS V14.01,2013-07-02 21:43:00,
2013-07-02 17:48:00,70.0,41.1,30.12,North,3,0.0,0.0,35,0.00,,-RA,0.31,VWS V14.01,2013-07-02 21:48:00,
2013-07-02 17:53:00,70.0,41.1,30.12,North,3,0.0,0.0,35,0.00,,-RA,0.31,VWS V14.01,2013-07-02 21:53:00,
2013-07-02 17:59:00,70.0,41.1,30.12,North,3,0.0,0.0,35,0.00,,-RA,0.31,VWS V14.01,2013-07-02 21:59:00,
2013-07-02 18:04:00,70.0,41.1,30.12,North,3,0.0,0.0,35,0.00,,-RA,0.31,VWS V14.01,2013-07-02 22:04:00,
2013-07-02 18:09:00,70.0,41.1,30.12,NNW,345,0.0,0.0,35,0.00,,-RA,0.83,VWS V14.01,2013-07-02 22:09:00,
2013-07-02 18:14:00,70.0,41.1,30.12,North,357,0.0,0.0,35,0.00,,-RA,0.31,VWS V14.01,2013-07-02 22:14:00,
2013-07-02 18:19:00,70.0,41.1,30.12,North,357,0.0,0.0,35,0.00,,-RA,0.83,VWS V14.01,2013-07-02 22:19:00,
2013-07-02 18:24:00,70.0,41.1,30.12,North,357,0.0,0.0,35,0.00,,-RA,0.31,VWS V14.01,2013-07-02 22:24:00,
2013-07-02 18:29:00,70.0,41.1,30.12,North,0,0.0,0.0,35,0.00,,-RA,0.31,VWS V14.01,2013-07-02 22:29:00,
2013-07-02 18:34:00,70.0,41.1,30.12,North,0,0.0,0.0,35,0.00,,-RA,0.31,VWS V14.01,2013-07-02 22:34:00,
2013-07-02 18:39:00,70.0,41.1,30.12,NNW,344,0.0,0.0,35,0.00,,-RA,0.31,VWS V14.01,2013-07-02 22:39:00,
2013-07-02 18:44:00,70.0,41.1,30.12,NNW,345,0.0,0.0,35,0.00,,-RA,0.31,VWS V14.01,2013-07-02 22:44:00,
2013-07-02 18:50:00,70.0,41.1,30.12,NNW,346,0.0,0.0,35,0.00,,-RA,0.31,VWS V14.01,2013-07-02 22:50:00,
2013-07-02 18:55:00,70.0,41.1,30.12,North,10,0.0,0.0,35,0.00,,-RA,0.31,VWS V14.01,2013-07-02 22:55:00,
2013-07-02 19:00:00,70.0,41.1,30.12,North,10,0.0,0.0,35,0.00,,-RA,0.31,VWS V14.01,2013-07-02 23:00:00,
2013-07-02 19:05:00,70.0,41.1,30.12,North,10,0.0,0.0,35,0.00,,-RA,0.31,VWS V14.01,2013-07-02 23:05:00,
2013-07-02 19:10:00,70.0,41.1,30.12,North,10,0.0,0.0,35,0.00,,-RA,0.31,VWS V14.01,2013-07-02 23:10:00,
2013-07-02 19:15:00,70.0,41.1,30.12,North,10,0.0,0.0,35,0.00,,-RA,0.31,VWS V14.01,2013-07-02 23:15:00,
2013-07-02 19:20:00,70.0,41.1,30.12,North,10,0.0,0.0,35,0.00,,-RA,0.31,VWS V14.01,2013-07-02 23:20:00,
2013-07-02 19:25:00,70.0,41.1,30.15,North,10,0.0,0.0,35,0.00,,-RA,0.31,VWS V14.01,2013-07-02 23:25:00,
2013-07-02 19:30:00,70.0,41.1,30.15,North,10,0.0,0.0,35,0.00,,-RA,0.31,VWS V14.01,2013-07-02 23:30:00,
2013-07-02 19:34:00,70.0,41.1,30.15,North,10,0.0,0.0,35,0.00,,-RA,0.31,VWS V14.01,2013-07-02 23:34:00,
2013-07-02 19:40:00,70.0,41.1,30.15,North,10,0.0,0.0,35,0.00,,-RA,0.31,VWS V14.01,2013-07-02 23:40:00,
2013-07-02 19:45:00,70.0,41.1,30.15,North,10,0.0,0.0,35,0.00,,-RA,0.83,VWS V14.01,2013-07-02 23:45:00,
2013-07-02 19:50:00,70.0,41.1,30.15,North,10,0.0,0.0,35,0.00,,-RA,0.31,VWS V14.01,2013-07-02 23:50:00,
2013-07-02 19:54:00,70.0,41.1,30.15,North,10,0.0,0.0,35,0.00,,-RA,0.31,VWS V14.01,2013-07-02 23:54:00,
2013-07-02 19:59:00,70.0,41.1,30.15,North,10,0.0,0.0,35,0.00,,-RA,0.31,VWS V14.01,2013-07-02 23:59:00,
2013-07-02 20:02:00,70.0,41.1,30.15,North,10,0.0,0.0,35,0.00,,-RA,0.31,VWS V14.01,2013-07-03 00:02:00,
2013-07-02 20:06:00,70.0,41.1,30.15,North,10,0.0,0.0,35,0.00,,-RA,0.31,VWS V14.01,2013-07-03 00:06:00,
2013-07-02 20:11:00,70.0,41.1,30.15,North,10,0.0,0.0,35,0.00,,-RA,0.31,VWS V14.01,2013-07-03 00:11:00,
2013-07-02 20:16:00,70.0,41.1,30.15,North,10,0.0,0.0,35,0.00,,-RA,0.31,VWS V14.01,2013-07-03 00:16:00,
2013-07-02 20:21:00,70.0,41.1,30.15,North,10,0.0,0.0,35,0.00,,-RA,0.31,VWS V14.01,2013-07-03 00:21:00,
2013-07-02 20:23:00,70.0,41.1,30.15,North,10,0.0,0.0,35,0.00,,-RA,0.31,VWS V14.01,2013-07-03 00:23:00,
2013-07-02 20:24:00,70.0,41.1,30.15,North,10,0.0,0.0,35,0.00,,-RA,0.31,VWS V14.01,2013-07-03 00:24:00,
2013-07-02 20:28:00,70.0,41.1,30.15,North,10,0.0,0.0,35,0.00,,-RA,0.31,VWS V14.01,2013-07-03 00:28:00,
2013-07-02 20:33:00,70.0,41.1,30.15,North,10,0.0,0.0,35,0.04,,-RA,0.83,VWS V14.01,2013-07-03 00:33:00,
2013-07-02 20:39:00,70.0,41.1,30.15,North,10,0.0,0.0,35,0.04,,-RA,0.35,VWS V14.01,2013-07-03 00:39:00,
2013-07-02 20:44:00,70.0,41.1,30.15,North,10,0.0,0.0,35,0.04,,-RA,0.35,VWS V14.01,2013-07-03 00:44:00,
2013-07-02 20:49:00,70.0,41.1,30.15,North,10,0.0,0.0,35,0.04,,-RA,0.35,VWS V14.01,2013-07-03 00:49:00,
2013-07-02 20:54:00,70.0,41.1,30.15,North,10,0.0,0.0,35,0.04,,-RA,0.35,VWS V14.01,2013-07-03 00:54:00,
2013-07-02 20:59:00,70.0,41.1,30.15,North,10,0.0,0.0,35,0.04,,-RA,0.35,VWS V14.01,2013-07-03 00:59:00,
2013-07-02 21:01:00,70.0,41.1,30.15,North,10,0.0,0.0,35,0.04,,-RA,0.35,VWS V14.01,2013-07-03 01:01:00,
2013-07-02 21:04:00,70.0,41.1,30.15,North,10,0.0,0.0,35,0.04,,-RA,0.35,VWS V14.01,2013-07-03 01:04:00,
2013-07-02 21:09:00,70.0,41.1,30.15,North,10,0.0,0.0,35,0.04,,-RA,0.35,VWS V14.01,2013-07-03 01:09:00,
2013-07-02 21:14:00,70.0,41.1,30.15,North,10,0.0,0.0,35,0.04,,-RA,0.83,VWS V14.01,2013-07-03 01:14:00,
2013-07-02 21:19:00,70.0,41.1,30.15,North,10,0.0,0.0,35,0.04,,-RA,0.35,VWS V14.01,2013-07-03 01:19:00,
2013-07-02 21:24:00,70.0,41.1,30.18,North,10,0.0,0.0,35,0.04,,-RA,0.35,VWS V14.01,2013-07-03 01:24:00,
2013-07-02 21:26:00,70.0,41.1,30.18,North,10,0.0,0.0,35,0.04,,-RA,0.83,VWS V14.01,2013-07-03 01:26:00,
2013-07-02 21:31:00,70.0,41.1,30.18,North,10,0.0,0.0,35,0.00,,-RA,0.35,VWS V14.01,2013-07-03 01:31:00,
2013-07-02 21:37:00,70.0,41.1,30.18,North,10,0.0,0.0,35,0.00,,-RA,0.35,VWS V14.01,2013-07-03 01:37:00,
2013-07-02 21:42:00,70.0,41.1,30.18,North,10,0.0,0.0,35,0.00,,-RA,0.35,VWS V14.01,2013-07-03 01:42:00,
2013-07-02 21:47:00,70.0,41.1,30.18,North,10,0.0,0.0,35,0.00,,-RA,0.35,VWS V14.01,2013-07-03 01:47:00,
2013-07-02 21:50:00,70.0,41.1,30.18,North,10,0.0,0.0,35,0.00,,-RA,0.35,VWS V14.01,2013-07-03 01:50:00,
2013-07-02 21:54:00,70.0,41.1,30.18,North,10,0.0,0.0,35,0.00,,-RA,0.35,VWS V14.01,2013-07-03 01:54:00,
2013-07-02 22:00:00,70.0,41.1,30.18,North,10,0.0,0.0,35,0.00,,-RA,0.35,VWS V14.01,2013-07-03 02:00:00,
2013-07-02 22:05:00,70.0,41.1,30.18,North,10,0.0,0.0,35,0.00,,-RA,0.35,VWS V14.01,2013-07-03 02:05:00,
2013-07-02 22:10:00,70.0,41.1,30.18,North,10,0.0,0.0,35,0.00,,-RA,0.83,VWS V14.01,2013-07-03 02:10:00,
2013-07-02 22:15:00,70.0,41.1,30.18,North,10,0.0,0.0,35,0.00,,-RA,0.35,VWS V14.01,2013-07-03 02:15:00,
2013-07-02 22:20:00,70.0,41.1,30.18,North,10,0.0,0.0,35,0.00,,-RA,0.35,VWS V14.01,2013-07-03 02:20:00,
2013-07-02 22:25:00,70.0,41.1,30.18,North,10,0.0,0.0,35,0.00,,-RA,0.35,VWS V14.01,2013-07-03 02:25:00,
2013-07-02 22:30:00,70.0,41.1,30.18,North,10,0.0,0.0,35,0.00,,-RA,0.35,VWS V14.01,2013-07-03 02:30:00,
2013-07-02 22:32:00,70.0,41.1,30.18,North,10,0.0,0.0,35,0.00,,-RA,0.35,VWS V14.01,2013-07-03 02:32:00,
2013-07-02 22:37:00,70.0,41.1,30.18,North,10,0.0,0.0,35,0.00,,-RA,0.35,VWS V14.01,2013-07-03 02:37:00,
2013-07-02 22:42:00,70.0,41.1,30.18,North,10,0.0,0.0,35,0.00,,-RA,0.35,VWS V14.01,2013-07-03 02:42:00,
2013-07-02 22:47:00,70.0,41.1,30.18,North,10,0.0,0.0,35,0.00,,-RA,0.83,VWS V14.01,2013-07-03 02:47:00,
2013-07-02 22:52:00,70.0,41.1,30.18,North,10,0.0,0.0,35,0.00,,-RA,0.35,VWS V14.01,2013-07-03 02:52:00,
2013-07-02 22:57:00,70.0,41.1,30.18,North,10,0.0,0.0,35,0.00,,-RA,0.35,VWS V14.01,2013-07-03 02:57:00,
2013-07-02 23:02:00,70.0,41.1,30.18,North,10,0.0,0.0,35,0.00,,-RA,0.35,VWS V14.01,2013-07-03 03:02:00,
2013-07-02 23:03:00,70.0,41.1,30.18,North,10,0.0,0.0,35,0.00,,-RA,0.35,VWS V14.01,2013-07-03 03:03:00,
2013-07-02 23:09:00,70.0,41.1,30.18,North,10,0.0,0.0,35,0.00,,-RA,0.35,VWS V14.01,2013-07-03 03:09:00,
2013-07-02 23:14:00,70.0,41.1,30.18,North,10,0.0,0.0,35,0.00,,-RA,0.35,VWS V14.01,2013-07-03 03:14:00,
2013-07-02 23:19:00,70.0,41.1,30.18,North,10,0.0,0.0,35,0.00,,-RA,0.35,VWS V14.01,2013-07-03 03:19:00,
2013-07-02 23:21:00,70.0,41.1,30.18,North,10,0.0,0.0,35,0.00,,-RA,0.35,VWS V14.01,2013-07-03 03:21:00,
2013-07-02 23:26:00,70.0,41.1,30.18,North,10,0.0,0.0,35,0.00,,-RA,0.35,VWS V14.01,2013-07-03 03:26:00,
2013-07-02 23:31:00,70.0,41.1,30.18,North,10,0.0,0.0,35,0.00,,-RA,0.35,VWS V14.01,2013-07-03 03:31:00,
2013-07-02 23:35:00,70.0,41.1,30.18,North,10,0.0,0.0,35,0.00,,-RA,0.35,VWS V14.01,2013-07-03 03:35:00,
2013-07-02 23:39:00,70.0,41.1,30.18,North,10,0.0,0.0,35,0.00,,-RA,0.35,VWS V14.01,2013-07-03 03:39:00,
2013-07-02 23:45:00,70.0,41.1,30.18,North,10,0.0,0.0,35,0.00,,-RA,0.83,VWS V14.01,2013-07-03 03:45:00,
2013-07-02 23:50:00,70.0,41.1,30.18,North,10,0.0,0.0,35,0.00,,-RA,0.35,VWS V14.01,2013-07-03 03:50:00,
2013-07-02 23:55:00,70.0,41.1,30.18,North,10,0.0,0.0,35,0.00,,-RA,0.35,VWS V14.01,2013-07-03 03:55:00,